Location: *
(32.8667°N, 13.1833°E)
Time: 04:37:44
(UTC+00:00)

CARTOSAT-1 - Pass Details

Date: 18 July 2019
Orbit: 616 x 619 km, 97.9° (Epoch: 20 August)

Event Time Altitude Azimuth Distance (km) Brightness Sun altitude
Exits shadow 20:49:09 49° 26° (NNE) 803 4.2 -26.1°
Drops below altitude 10° 20:52:32 10° 356° (N) 1,986 6.9 -26.5°
Sets 20:54:44 0° 353° (N) 2,895 7.9 -26.8°
